Location: Aufhausen
(48.8602°N, 10.3178°E)
Time: 07:35:04
(UTC+00:00)

Daily predictions for brighter satellites

Satellite Brightness Start Highest point End
(mag) Time Altitude Azimuth Time Altitude Azimuth Time Altitude Azimuth
PSLV R/B 4.2 20:02:18 10° N 20:06:26 76° WNW 20:10:34 10° SSW
Cosmos 1980 Rocket 4.4 20:03:56 10° N 20:07:34 17° NE 20:11:11 10° ENE
NOSS 2-1 (D) 4.2 20:03:22 10° NW 20:07:39 63° NE 20:13:39 10° SE
S3M 4.3 20:03:00 10° SSW 20:09:11 75° W 20:15:21 10° N
Cosmos 1953 4.5 20:07:11 10° NNW 20:10:28 25° W 20:13:44 10° SW
Cosmos 1697 Rocket 4.2 20:06:07 10° NNW 20:10:48 26° NE 20:15:27 10° E
Meteor 2-10 Rocket 4.2 20:06:28 10° NNW 20:11:23 53° W 20:16:14 10° S
SPOT 5 3.1 20:07:49 10° SE 20:12:03 46° ENE 20:16:13 10° N
H-2A R/B 2.8 20:08:43 10° N 20:13:02 60° WNW 20:17:25 10° SSW
Tiangong 2.6 20:13:22 10° WSW 20:15:50 21° S 20:18:19 10° SE
Cosmos 1975 Rocket 3.1 20:12:00 10° S 20:16:28 89° ESE 20:20:56 10° N
CARTOSAT-1 3.6 20:13:41 10° SSE 20:17:59 84° WSW 20:22:20 10° NNW
IRAS Rocket 4.3 20:14:05 10° NNE 20:19:44 76° ESE 20:25:17 10° SSW
Cosmos 1656 4.2 20:15:45 10° NNW 20:21:03 49° NE 20:26:23 10° SE
Cosmos 2084 3.2 20:17:41 10° SSW 20:21:26 54° SE 20:25:13 10° NE
USA 276 2.5 20:26:35 10° SW 20:29:23 36° SSE 20:32:11 10° E
Spot 2 Rocket 3.6 20:26:03 10° SSE 20:31:07 74° ENE 20:36:14 10° NNW
ATLAS 2AS CENTAUR R/B 2.8 20:24:20 10° NW 20:31:33 83° SW 20:37:59 11° SE
Cosmos 1544 Rocket 3.5 20:29:00 10° N 20:33:21 86° E 20:37:41 10° S
Meteor 1-24 Rocket 3.6 20:28:40 10° S 20:33:59 89° WNW 20:39:27 10° NNE
Lacrosse 5 1.9 20:31:07 10° WNW 20:36:15 76° SW 20:40:57 12° SE
USA 234 3.9 20:29:55 10° E 20:36:17 56° NNE 20:42:40 10° WNW
Cosmos 1371 Rocket 4.2 20:31:13 10° SSW 20:36:27 79° WNW 20:41:47 10° NNE
Cosmos 1452 Rocket 4.2 20:32:27 10° SSE 20:37:12 35° ESE 20:41:57 10° NE
X-37B 1.2 20:36:47 10° SW 20:39:17 29° SSE 20:41:44 10° ESE
Cosmos 1833 Rocket 3.8 20:36:05 10° SSE 20:40:24 25° ESE 20:44:52 10° NE
Terra 2.0 20:38:02 11° SSE 20:42:28 64° ENE 20:47:13 10° N
FALCON 9 DEB 4.2 20:42:25 10° W 20:45:34 44° N 20:48:43 10° ENE
Cosmos 2184 Rocket 4.1 20:40:04 10° N 20:46:12 64° ENE 20:51:50 12° SSE
Resurs 01 Rocket 3.8 20:45:55 10° SW 20:49:24 22° W 20:52:55 10° NW
Cosmos 724 4.2 20:46:39 10° SSW 20:52:23 66° ESE 20:58:09 10° NE
CZ-4B R/B 3.8 20:53:05 10° NNW 20:55:15 19° WNW 20:57:24 10° WSW
Helios 1A Rocket 3.1 20:51:31 11° S 20:55:20 68° WSW 20:59:27 10° NNW
Lacrosse 5 rocket 2.6 20:55:51 10° WNW 20:59:12 28° SW 21:01:56 14° S
Cosmos 1271 Rocket 3.5 20:56:46 10° NNW 21:00:38 49° W 21:04:25 10° S
Cosmos 2082 Rocket 3.9 21:01:01 13° SE 21:03:24 16° E 21:06:49 10° ENE
NOSS 2-1 (E) 4.4 21:01:38 10° NW 21:06:13 61° SW 21:11:18 16° SSE
ERS-1 Rocket 3.3 21:03:41 12° S 21:08:23 63° WSW 21:13:24 10° NNW
RESURS DK-1 2.5 21:06:07 10° NNW 21:10:15 68° ENE 21:13:07 19° SE
Cosmos 2058 Rocket 4.5 21:11:19 10° NNE 21:15:03 26° ENE 21:17:48 15° ESE
CZ-2C R/B 3.8 21:11:47 10° NNE 21:16:26 81° WNW 21:20:57 10° SSW
ARIANE 5 R/B 2.8 21:18:10 17° S 21:21:34 73° WSW 21:26:02 10° NNW
Cosmos 1741 Rocket 4.1 21:16:39 10° NNW 21:21:59 83° WSW 21:25:51 19° SSE
Cosmos 968 Rocket 4.4 21:18:38 10° N 21:23:29 38° ENE 21:27:23 15° ESE
Cosmos 1825 4.5 21:24:12 10° E 21:25:18 11° E 21:26:27 10° ENE
Cosmos 2344 4.3 21:19:13 10° NW 21:27:53 77° NE 21:38:57 13° SE
SL-8 R/B 3.6 21:24:21 10° W 21:29:09 73° SSW 21:33:28 13° ESE
GP-B 3.8 21:27:19 10° NNE 21:31:31 40° E 21:33:53 22° SE
Cosmos 1455 4.3 21:28:37 10° NW 21:31:37 22° W 21:34:37 10° SW
Cosmos 2074 Rocket 4.4 21:28:32 10° NNW 21:34:42 59° W 21:40:08 13° SSW
ADEOS Rocket 4.4 21:33:32 13° ESE 21:39:25 39° ENE 21:46:23 10° N
ASTEX 1 3.6 21:34:43 10° NNE 21:39:41 59° E 21:42:46 23° SSE
COSMOS 2406 3.7 21:37:53 20° S 21:41:30 44° ESE 21:46:55 10° NE
USA 267 3.2 21:37:32 10° ENE 21:44:05 72° SE 21:50:38 10° SW
Cosmos 2369 4.0 21:38:26 10° NNW 21:44:08 62° ENE 21:48:09 20° SE
SL-16 R/B 4.2 21:40:38 10° N 21:45:01 22° NE 21:49:24 10° E
Cosmos 2228 3.7 21:45:14 10° NNW 21:49:18 46° W 21:52:05 18° SSW
Nadezhda 1 Rocket 4.1 21:47:09 13° SSW 21:52:34 75° W 21:58:40 10° N
Cosmos 1980 Rocket 2.5 21:47:05 10° NNW 21:52:46 63° ENE 21:56:37 21° SE
Cosmos 1606 Rocket 3.8 21:50:08 10° NNW 21:54:25 63° W 21:56:56 24° S
Cosmos 1697 Rocket 2.8 21:49:42 10° NNW 21:55:19 71° WSW 21:58:44 24° SSE
Cosmos 1892 3.2 21:55:58 30° SE 21:57:15 42° E 22:00:50 10° NNE
SJ 16-02 3.9 21:55:46 10° NNE 21:58:01 14° NE 22:00:16 10° ENE
Cosmos 2084 Rocket 3.4 21:56:36 10° NW 22:00:29 67° NE 22:02:43 25° ESE
Meteor 1-11 4.3 21:57:30 23° S 22:00:56 63° E 22:06:28 10° NNE
USA 276 2.0 22:01:56 10° W 22:04:57 77° N 22:07:57 10° ENE
Cosmos 1328 4.1 22:04:04 21° SSW 22:06:35 63° WNW 22:10:35 10° N
Cosmos 1331 Rocket 4.2 22:04:06 12° SSW 22:09:01 73° WNW 22:14:20 10° NNE
X-37B 2.2 22:11:49 10° WSW 22:12:58 20° WSW 22:12:58 20° WSW
Cosmos 1408 2.3 22:15:25 39° S 22:16:36 87° E 22:20:03 10° N
Lacrosse 5 3.7 22:15:16 10° W 22:18:30 17° WSW 22:20:08 15° SW
Cosmos 1726 Rocket 4.2 22:15:02 10° NNW 22:19:09 45° W 22:21:23 24° SSW
USA 234 3.2 22:14:25 20° SE 22:19:12 71° SW 22:25:47 10° WNW
Terra 4.0 22:17:29 10° SW 22:20:40 18° W 22:23:53 10° NW
ATLAS 2AS CENTAUR R/B 4.4 22:16:42 10° WNW 22:21:22 19° WSW 22:25:25 11° SSW
FALCON 9 DEB 4.3 22:19:06 10° WNW 22:22:14 42° N 22:25:23 10° E
Cosmos 1833 Rocket 3.1 22:18:21 10° SW 22:23:54 61° WNW 22:29:29 10° NNE
Cosmos 2322 Rocket 3.8 22:19:32 10° NNW 22:24:25 28° NE 22:29:18 10° ESE
Cosmos 1867 3.6 22:22:27 10° NW 22:27:58 83° NE 22:31:17 25° SE
Cosmos 2278 3.9 22:23:09 10° NNW 22:28:54 71° ENE 22:32:24 24° SE
SL-8 Rocket 4.0 22:23:49 10° NNW 22:30:05 78° W 22:33:46 26° S
ATLAS 5 CENTAUR R/B 2.8 22:30:25 20° ESE 22:30:25 20° ESE 22:33:13 10° ENE
Cosmos 1812 Rocket 4.3 22:28:06 10° N 22:32:24 44° ENE 22:34:25 27° SE
ALOS 2 2.6 22:32:45 33° SSE 22:34:41 77° ENE 22:39:05 10° N
Cosmos 1302 Rocket 4.0 22:31:56 22° SSW 22:35:19 84° WNW 22:40:33 10° NNE
Cosmos 2218 Rocket 4.1 22:35:45 10° NNW 22:42:10 76° W 22:45:53 27° S
Cosmos 2366 rocket 4.1 22:39:37 10° NNW 22:45:55 72° W 22:49:34 27° S
Cosmos 2082 Rocket 2.2 22:42:49 22° SSW 22:46:41 89° WNW 22:52:26 10° NNE
Cosmos 1602 Rocket 3.8 22:45:32 35° SSE 22:47:02 53° E 22:51:15 10° NNE
H-2A R/B 3.4 22:45:16 10° NNE 22:49:30 85° ESE 22:51:09 36° S
Cosmos 2058 Rocket 4.1 22:49:05 10° NNW 22:53:06 35° W 22:55:04 24° SW
Spot 4 4.4 22:52:43 28° SSW 22:54:50 46° W 22:59:26 10° NNW
Cosmos 1825 2.3 22:58:50 38° SW 23:00:05 63° WNW 23:03:49 10° N
Cosmos 2360 Rocket 3.6 22:58:53 10° NNW 23:04:05 35° NE 23:09:14 10° ESE
ERS-2 2.2 23:01:33 10° NNE 23:05:07 61° ESE 23:05:53 47° SSE
Cosmos 968 Rocket 4.5 23:00:33 10° NW 23:05:14 35° WSW 23:07:22 25° SW
Cosmos-2242 3.0 23:02:27 10° N 23:06:43 76° E 23:08:16 38° SSE
Cosmos 1626 Rocket 3.9 23:10:22 31° SW 23:12:15 57° WNW 23:16:33 10° N
Cosmos 1869 4.2 23:12:27 10° NNW 23:16:01 36° W 23:17:08 29° SW
Cosmos 1606 2.8 23:13:16 10° N 23:17:07 69° E 23:18:18 41° SSE
Cosmos 2058 3.6 23:16:21 32° SE 23:17:41 44° E 23:21:41 10° NNE
BREEZE-M DEB (TANK) 4.1 23:14:25 10° W 23:18:06 82° SSW 23:34:03 10° ESE
Cosmos 1934 Rocket 4.4 23:12:38 10° N 23:18:37 56° ENE 23:22:23 23° SE
Cosmos 1825 Rocket 3.8 23:22:58 36° SSE 23:24:27 57° E 23:28:43 10° NNE
ADEOS Rocket 3.8 23:20:28 26° SSW 23:24:35 56° W 23:32:07 10° NNW
COSMOS 2406 4.5 23:20:32 10° WSW 23:25:54 38° NW 23:31:16 10° NNE
Cosmos 1633 2.7 23:25:15 44° SW 23:26:05 60° WNW 23:29:33 10° N
USA 267 3.9 23:20:40 10° ENE 23:27:01 56° NNW 23:33:22 10° W
SL-16 R/B 2.1 23:24:11 10° NNW 23:29:54 88° WSW 23:33:07 27° SSE
Cosmos 1980 Rocket 3.6 23:31:51 10° NW 23:36:18 24° WSW 23:38:22 20° SW
SJ 16-02 1.3 23:32:51 10° NNW 23:37:19 85° ENE 23:39:13 34° SSE
USA 276 2.0 23:37:43 10° WNW 23:40:44 80° N 23:43:45 10° E
Meteor 2-2 Rocket 4.4 23:36:27 10° N 23:42:29 86° E 23:45:55 27° SSE
Cosmos 1821 Rocket 4.3 23:36:33 10° NNW 23:42:39 55° W 23:45:54 27° SSW
Cosmos 2219 Rocket 3.8 23:39:22 10° NNW 23:44:27 33° NE 23:49:32 10° ESE
Cosmos 1340 Rocket 2.9 23:48:44 39° SSE 23:49:56 61° E 23:53:50 10° NNE
CZ-2D R/B 4.0 23:46:41 10° NE 23:50:17 18° E 23:53:35 11° SE
